When you browse on this site, cookies collect data to enhance your experience and personalize the content and advertising you see.
Visit our Privacy Policy to learn more. By continuing to use the site, you agree to this use of cookies and data.
  • en Suisse
  • Liste des pays
  • À 7 jours
  • Température de l'eau
  • Carte météo
  • Widgets météo
  • user-avatar
    Se connecter

    Météo par heure à Kazinka

    Ce jour, 23 Septembre, Lundi

    Heure Température Précipitation Vent Pression Humidité
    00:00 -1°C° 0 mm 6 m/s 736 mmHg 82%
    01:00 -1°C° 0 mm 6 m/s 737 mmHg 83%
    02:00 -1°C° 0 mm 6 m/s 738 mmHg 85%
    03:00 0°C° 0 mm 5 m/s 738 mmHg 89%
    04:00 0°C° 0 mm 5 m/s 739 mmHg 87%
    05:00 0°C° 0 mm 5 m/s 739 mmHg 84%
    06:00 0°C° 0 mm 5 m/s 740 mmHg 82%
    07:00 +1°C° 0 mm 5 m/s 740 mmHg 77%
    08:00 +2°C° 0 mm 5 m/s 741 mmHg 72%
    09:00 +3°C° 0 mm 6 m/s 742 mmHg 66%
    10:00 +4°C° 0 mm 6 m/s 742 mmHg 63%
    11:00 +5°C° 0 mm 6 m/s 742 mmHg 60%
    12:00 +7°C° 0 mm 6 m/s 742 mmHg 58%
    13:00 +7°C° 0 mm 6 m/s 742 mmHg 57%
    14:00 +7°C° 0 mm 6 m/s 742 mmHg 56%
    15:00 +8°C° 0 mm 6 m/s 743 mmHg 55%
    16:00 +7°C° 0 mm 5 m/s 743 mmHg 58%
    17:00 +6°C° 0 mm 5 m/s 743 mmHg 61%
    18:00 +6°C° 0 mm 4 m/s 743 mmHg 64%
    19:00 +5°C° 0 mm 4 m/s 743 mmHg 65%
    20:00 +5°C° 0 mm 4 m/s 744 mmHg 67%
    21:00 +4°C° 0 mm 3 m/s 744 mmHg 68%
    22:00 +4°C° 0 mm 3 m/s 744 mmHg 70%
    23:00 +4°C° 0 mm 2 m/s 744 mmHg 72%

    Demain, 24 Septembre, Mardi

    Heure Température Précipitation Vent Pression Humidité
    00:00 +3°C° 0 mm 2 m/s 744 mmHg 74%
    01:00 +3°C° 0 mm 2 m/s 744 mmHg 74%
    02:00 +2°C° 0 mm 2 m/s 745 mmHg 75%
    03:00 +2°C° 0 mm 2 m/s 745 mmHg 75%
    04:00 +1°C° 0 mm 2 m/s 745 mmHg 77%
    05:00 +1°C° 0 mm 2 m/s 745 mmHg 78%
    06:00 +1°C° 0 mm 2 m/s 745 mmHg 80%
    07:00 +1°C° 0 mm 3 m/s 745 mmHg 74%
    08:00 +2°C° 0 mm 3 m/s 745 mmHg 69%
    09:00 +4°C° 0 mm 4 m/s 745 mmHg 63%
    10:00 +4°C° 0 mm 4 m/s 745 mmHg 61%
    11:00 +5°C° 0 mm 4 m/s 745 mmHg 58%
    12:00 +6°C° 0 mm 4 m/s 745 mmHg 55%
    13:00 +6°C° 0 mm 4 m/s 745 mmHg 56%
    14:00 +6°C° 0 mm 4 m/s 744 mmHg 57%
    15:00 +6°C° 0 mm 4 m/s 744 mmHg 59%
    16:00 +5°C° 0 mm 4 m/s 744 mmHg 61%
    17:00 +5°C° 0 mm 3 m/s 744 mmHg 64%
    18:00 +4°C° 0 mm 3 m/s 744 mmHg 66%
    19:00 +3°C° 0 mm 3 m/s 744 mmHg 70%
    20:00 +3°C° 0 mm 3 m/s 745 mmHg 74%
    21:00 +3°C° 0 mm 2 m/s 745 mmHg 77%
    22:00 +2°C° 0 mm 2 m/s 745 mmHg 80%
    23:00 +2°C° 0 mm 2 m/s 745 mmHg 83%

    Après-demain, 25 Septembre, Mercredi

    Heure Température Précipitation Vent Pression Humidité
    00:00 +2°C° 0 mm 2 m/s 745 mmHg 86%
    01:00 +1°C° 0 mm 2 m/s 745 mmHg 88%
    02:00 +1°C° 0 mm 2 m/s 745 mmHg 90%
    03:00 +1°C° 0 mm 2 m/s 745 mmHg 92%
    04:00 +1°C° 0 mm 2 m/s 745 mmHg 93%
    05:00 -1°C° 0 mm 2 m/s 745 mmHg 93%
    06:00 -1°C° 0 mm 2 m/s 745 mmHg 93%
    07:00 +2°C° 0 mm 2 m/s 746 mmHg 87%
    08:00 +3°C° 0 mm 2 m/s 746 mmHg 80%
    09:00 +4°C° 0 mm 2 m/s 746 mmHg 73%
    10:00 +5°C° 0 mm 2 m/s 746 mmHg 69%
    11:00 +7°C° 0 mm 2 m/s 746 mmHg 64%
    12:00 +8°C° 0 mm 3 m/s 746 mmHg 59%
    13:00 +8°C° 0.1 mm 3 m/s 746 mmHg 58%
    14:00 +8°C° 0.1 mm 3 m/s 746 mmHg 56%
    15:00 +9°C° 0.1 mm 3 m/s 746 mmHg 55%
    16:00 +8°C° 0 mm 3 m/s 745 mmHg 59%
    17:00 +7°C° 0 mm 2 m/s 745 mmHg 63%
    18:00 +7°C° 0 mm 1 m/s 745 mmHg 67%
    19:00 +7°C° 0 mm 1 m/s 745 mmHg 69%
    20:00 +6°C° 0 mm 1 m/s 745 mmHg 71%
    21:00 +6°C° 0 mm 1 m/s 745 mmHg 73%
    22:00 +6°C° 0 mm 1 m/s 745 mmHg 73%
    23:00 +5°C° 0 mm 1 m/s 745 mmHg 73%

    26 Septembre, Jeudi

    Heure Température Précipitation Vent Pression Humidité
    00:00 +5°C° 0 mm 1 m/s 745 mmHg 73%
    01:00 +5°C° 0 mm 1 m/s 745 mmHg 74%
    02:00 +5°C° 0 mm 1 m/s 745 mmHg 74%
    03:00 +5°C° 0 mm 1 m/s 745 mmHg 75%
    04:00 +4°C° 0 mm 1 m/s 745 mmHg 77%
    05:00 +4°C° 0 mm 1 m/s 745 mmHg 79%
    06:00 +3°C° 0 mm 1 m/s 745 mmHg 81%
    07:00 +5°C° 0 mm 1 m/s 745 mmHg 76%
    08:00 +6°C° 0 mm 1 m/s 746 mmHg 72%
    09:00 +7°C° 0 mm 1 m/s 746 mmHg 67%
    10:00 +8°C° 0 mm 1 m/s 746 mmHg 62%
    11:00 +9°C° 0 mm 2 m/s 746 mmHg 57%
    12:00 +10°C° 0 mm 2 m/s 746 mmHg 52%
    13:00 +10°C° 0 mm 2 m/s 746 mmHg 50%
    14:00 +10°C° 0 mm 2 m/s 746 mmHg 49%
    15:00 +12°C° 0 mm 2 m/s 745 mmHg 47%
    16:00 +11°C° 0 mm 1 m/s 745 mmHg 51%
    17:00 +10°C° 0 mm 1 m/s 745 mmHg 55%
    18:00 +9°C° 0 mm 1 m/s 745 mmHg 59%
    19:00 +8°C° 0 mm 1 m/s 745 mmHg 61%
    20:00 +8°C° 0 mm 1 m/s 745 mmHg 63%
    21:00 +7°C° 0 mm 1 m/s 745 mmHg 65%
    22:00 +5°C° 0 mm 0 m/s 745 mmHg 66%
    23:00 +5°C° 0 mm 0 m/s 745 mmHg 68%

    27 Septembre, Vendredi

    Heure Température Précipitation Vent Pression Humidité
    00:00 +5°C° 0 mm 0 m/s 745 mmHg 69%
    01:00 +4°C° 0 mm 0 m/s 745 mmHg 70%
    02:00 +4°C° 0 mm 0 m/s 745 mmHg 71%
    03:00 +5°C° 0 mm 1 m/s 745 mmHg 72%
    04:00 +5°C° 0 mm 1 m/s 745 mmHg 72%
    05:00 +4°C° 0 mm 1 m/s 745 mmHg 73%
    06:00 +4°C° 0 mm 1 m/s 745 mmHg 73%
    07:00 +6°C° 0 mm 1 m/s 745 mmHg 69%
    08:00 +7°C° 0 mm 1 m/s 745 mmHg 64%
    09:00 +9°C° 0 mm 1 m/s 745 mmHg 59%
    10:00 +10°C° 0 mm 1 m/s 745 mmHg 56%
    11:00 +10°C° 0 mm 2 m/s 745 mmHg 54%
    12:00 +13°C° 0 mm 2 m/s 745 mmHg 51%
    13:00 +13°C° 0 mm 2 m/s 745 mmHg 52%
    14:00 +14°C° 0 mm 2 m/s 745 mmHg 52%
    15:00 +13°C° 0 mm 3 m/s 744 mmHg 53%
    16:00 +13°C° 0 mm 2 m/s 744 mmHg 58%
    17:00 +12°C° 0 mm 2 m/s 744 mmHg 63%
    18:00 +10°C° 0 mm 2 m/s 744 mmHg 68%
    19:00 +11°C° 0 mm 1 m/s 745 mmHg 71%
    20:00 +10°C° 0 mm 1 m/s 745 mmHg 74%
    21:00 +9°C° 0 mm 1 m/s 745 mmHg 77%
    22:00 +9°C° 0 mm 1 m/s 745 mmHg 78%
    23:00 +8°C° 0 mm 1 m/s 745 mmHg 78%

    28 Septembre, Samedi

    Heure Température Précipitation Vent Pression Humidité
    00:00 +8°C° 0 mm 1 m/s 745 mmHg 79%
    01:00 +8°C° 0 mm 1 m/s 746 mmHg 79%
    02:00 +6°C° 0 mm 0 m/s 746 mmHg 80%
    03:00 +6°C° 0 mm 0 m/s 746 mmHg 80%
    04:00 +6°C° 0 mm 0 m/s 746 mmHg 80%
    05:00 +5°C° 0 mm 0 m/s 746 mmHg 81%
    06:00 +5°C° 0 mm 0 m/s 746 mmHg 81%
    07:00 +6°C° 0 mm 0 m/s 746 mmHg 76%
    08:00 +8°C° 0 mm 0 m/s 747 mmHg 71%
    09:00 +9°C° 0 mm 0 m/s 747 mmHg 65%
    10:00 +10°C° 0 mm 0 m/s 747 mmHg 61%
    11:00 +11°C° 0 mm 0 m/s 747 mmHg 57%
    12:00 +13°C° 0 mm 0 m/s 748 mmHg 53%
    13:00 +13°C° 0 mm 0 m/s 747 mmHg 51%
    14:00 +14°C° 0 mm 1 m/s 747 mmHg 50%
    15:00 +15°C° 0 mm 1 m/s 747 mmHg 49%
    16:00 +14°C° 0 mm 1 m/s 747 mmHg 54%
    17:00 +13°C° 0 mm 1 m/s 747 mmHg 58%
    18:00 +12°C° 0 mm 1 m/s 747 mmHg 63%
    19:00 +12°C° 0 mm 1 m/s 747 mmHg 66%
    20:00 +12°C° 0 mm 1 m/s 747 mmHg 69%
    21:00 +11°C° 0 mm 1 m/s 747 mmHg 72%
    22:00 +10°C° 0 mm 2 m/s 747 mmHg 74%
    23:00 +10°C° 0 mm 2 m/s 747 mmHg 76%
    Voir plus